Starlink 30838

operational
NORAD ID: 58211 Int'l Des: 2023-170 Owner: SPXS Country: US Constellation: starlink
LEOCIRCULAR

Starlink 30838について

説明を読み込み中...

リアルタイム位置

3D地球を読み込み中...

次回通過

高度履歴

Altitude vs Time

uPlot chart will show altitude changes over time

軌道要素

1 58211U 23170F 25303.68932941 .00000524 00000-0 53855-4 0 9996
2 58211 43.0061 182.3425 0001286 265.7747 94.2948 15.02533966110720
Epoch: Oct 30, 2025 • Age: 27 hours

現在のステータス

高度 561.5 km
速度 7.59 km/s
衛星直下点 36.11°N, 112.13°W
打ち上げ日 Nov 4, 2023
運用期間 1.9 years
タイプ internet

技術仕様

分類 Payload
質量 730.00 kg
乾燥質量 700.00 kg
総質量 730.00 kg
長さ 0.30 m
直径 4.10 m
スパン 29.00 m
形状 Box + pan
製造者 SPXS
バスタイプ Starlink V2M
フェーズステータス In Orbit
所有者/国 SPXS/US

大規模コンステレーション

Loading constellations...